Time,TemperatureF,DewpointF,PressureIn,WindDirection,WindDirectionDegrees,WindSpeedMPH,WindSpeedGustMPH,Humidity,HourlyPrecipIn,Conditions,Clouds,dailyrainin,SoftwareType,DateUTC
2013-09-11 00:00:00,81.1,74.0,29.98,SSE,164,1.0,1.0,79,0.00,,,0.25,Wunderground v.1.15,2013-09-11 04:00:00,
2013-09-11 00:05:00,81.0,74.2,29.98,NW,315,2.0,2.0,80,0.00,,,0.00,Wunderground v.1.15,2013-09-11 04:05:00,
2013-09-11 00:10:00,80.9,74.1,29.98,West,259,1.0,1.0,80,0.00,,,0.00,Wunderground v.1.15,2013-09-11 04:10:00,
2013-09-11 00:15:00,80.8,74.0,29.99,WNW,298,1.0,1.0,80,0.00,,,0.00,Wunderground v.1.15,2013-09-11 04:15:00,
2013-09-11 00:20:00,80.8,74.0,29.99,WSW,252,1.0,1.0,80,0.00,,,0.00,Wunderground v.1.15,2013-09-11 04:20:00,
2013-09-11 00:25:00,80.7,74.0,29.99,West,262,1.0,3.0,80,0.00,,,0.00,Wunderground v.1.15,2013-09-11 04:25:00,
2013-09-11 00:30:00,80.7,74.0,29.99,WNW,285,1.0,1.0,80,0.00,,,0.00,Wunderground v.1.15,2013-09-11 04:30:00,
2013-09-11 00:40:00,80.7,74.0,29.99,SSW,202,1.0,1.0,80,0.00,,,0.00,Wunderground v.1.15,2013-09-11 04:40:00,
2013-09-11 00:45:00,80.6,74.2,29.99,West,271,1.0,1.0,81,0.00,,,0.00,Wunderground v.1.15,2013-09-11 04:45:00,
2013-09-11 00:50:00,80.6,74.2,29.99,WNW,295,1.0,1.0,81,0.00,,,0.00,Wunderground v.1.15,2013-09-11 04:50:00,
2013-09-11 00:55:00,80.5,74.1,29.99,SW,215,1.0,1.0,81,0.00,,,0.00,Wunderground v.1.15,2013-09-11 04:55:00,
2013-09-11 01:00:00,80.4,74.0,29.99,SSW,204,1.0,1.0,81,0.00,,,0.00,Wunderground v.1.15,2013-09-11 05:00:00,
2013-09-11 01:10:00,80.3,73.9,29.99,SW,236,1.0,1.0,81,0.00,,,0.00,Wunderground v.1.15,2013-09-11 05:10:00,
2013-09-11 01:15:00,80.2,74.2,29.99,SW,233,1.0,1.0,82,0.00,,,0.00,Wunderground v.1.15,2013-09-11 05:15:00,
2013-09-11 01:20:00,80.1,74.1,29.99,WSW,244,1.0,1.0,82,0.00,,,0.00,Wunderground v.1.15,2013-09-11 05:20:00,
2013-09-11 01:25:00,80.2,74.2,29.99,ESE,117,1.0,1.0,82,0.00,,,0.00,Wunderground v.1.15,2013-09-11 05:25:00,
2013-09-11 01:30:00,80.1,74.1,29.99,West,264,1.0,1.0,82,0.00,,,0.00,Wunderground v.1.15,2013-09-11 05:30:00,
2013-09-11 01:35:00,80.0,74.0,29.99,WSW,239,1.0,1.0,82,0.00,,,0.00,Wunderground v.1.15,2013-09-11 05:35:00,
2013-09-11 01:45:00,79.8,74.2,29.99,WSW,243,1.0,1.0,83,0.00,,,0.00,Wunderground v.1.15,2013-09-11 05:45:00,
2013-09-11 01:50:00,79.7,74.1,29.99,SW,224,1.0,1.0,83,0.00,,,0.00,Wunderground v.1.15,2013-09-11 05:50:00,
2013-09-11 01:55:00,79.6,74.0,29.99,WNW,288,1.0,3.0,83,0.00,,,0.00,Wunderground v.1.15,2013-09-11 05:55:00,
2013-09-11 02:00:00,79.6,74.0,29.99,WSW,240,1.0,1.0,83,0.00,,,0.00,Wunderground v.1.15,2013-09-11 06:00:00,
2013-09-11 02:09:00,79.4,73.8,29.99,SW,224,1.0,1.0,83,0.00,,,0.00,Wunderground v.1.15,2013-09-11 06:09:00,
2013-09-11 02:14:00,79.4,73.8,29.99,West,262,1.0,1.0,83,0.00,,,0.00,Wunderground v.1.15,2013-09-11 06:14:00,
2013-09-11 02:19:00,79.3,74.0,29.99,West,273,1.0,2.0,84,0.00,,,0.00,Wunderground v.1.15,2013-09-11 06:19:00,
2013-09-11 02:24:00,79.2,73.9,29.99,West,261,1.0,2.0,84,0.00,,,0.00,Wunderground v.1.15,2013-09-11 06:24:00,
2013-09-11 02:30:00,79.0,73.7,29.99,WSW,252,1.0,1.0,84,0.00,,,0.00,Wunderground v.1.15,2013-09-11 06:30:00,
2013-09-11 02:35:00,78.9,73.7,29.98,West,260,1.0,3.0,84,0.00,,,0.00,Wunderground v.1.15,2013-09-11 06:35:00,
2013-09-11 02:40:00,78.9,73.7,29.98,West,268,1.0,1.0,84,0.00,,,0.00,Wunderground v.1.15,2013-09-11 06:40:00,
2013-09-11 02:49:00,78.6,73.7,29.98,SW,233,1.0,1.0,85,0.00,,,0.00,Wunderground v.1.15,2013-09-11 06:49:00,
2013-09-11 02:54:00,78.5,73.6,29.99,West,273,0.0,1.0,85,0.00,,,0.00,Wunderground v.1.15,2013-09-11 06:54:00,
2013-09-11 03:00:00,78.4,73.5,29.99,WNW,288,1.0,1.0,85,0.00,,,0.00,Wunderground v.1.15,2013-09-11 07:00:00,
2013-09-11 03:09:00,78.3,73.8,29.99,WSW,258,1.0,1.0,86,0.00,,,0.00,Wunderground v.1.15,2013-09-11 07:09:00,
2013-09-11 03:15:00,78.3,73.8,29.99,WSW,252,1.0,1.0,86,0.00,,,0.00,Wunderground v.1.15,2013-09-11 07:15:00,
2013-09-11 03:20:00,78.3,73.8,29.99,WNW,292,1.0,1.0,86,0.00,,,0.00,Wunderground v.1.15,2013-09-11 07:20:00,
2013-09-11 03:29:00,78.2,73.7,29.99,West,266,0.0,1.0,86,0.00,,,0.00,Wunderground v.1.15,2013-09-11 07:29:00,
2013-09-11 03:34:00,78.1,73.6,29.98,West,262,0.0,1.0,86,0.00,,,0.00,Wunderground v.1.15,2013-09-11 07:34:00,
2013-09-11 03:39:00,78.1,73.6,29.98,WSW,237,0.0,0.0,86,0.00,,,0.00,Wunderground v.1.15,2013-09-11 07:39:00,
2013-09-11 03:44:00,78.0,73.5,29.98,WSW,242,0.0,0.0,86,0.00,,,0.00,Wunderground v.1.15,2013-09-11 07:44:00,
2013-09-11 03:50:00,78.0,73.5,29.98,WSW,239,0.0,1.0,86,0.00,,,0.00,Wunderground v.1.15,2013-09-11 07:50:00,
2013-09-11 03:55:00,78.0,73.5,29.98,SSW,195,0.0,1.0,86,0.00,,,0.00,Wunderground v.1.15,2013-09-11 07:55:00,
2013-09-11 04:00:00,78.1,73.6,29.98,West,266,1.0,1.0,86,0.00,,,0.00,Wunderground v.1.15,2013-09-11 08:00:00,
2013-09-11 04:10:00,78.1,73.6,29.98,WSW,251,0.0,0.0,86,0.00,,,0.00,Wunderground v.1.15,2013-09-11 08:10:00,
2013-09-11 04:15:00,78.1,73.6,29.98,SE,126,0.0,0.0,86,0.00,,,0.00,Wunderground v.1.15,2013-09-11 08:15:00,
2013-09-11 04:25:00,77.9,73.4,29.99,WNW,285,0.0,0.0,86,0.00,,,0.00,Wunderground v.1.15,2013-09-11 08:25:00,
2013-09-11 04:30:00,77.8,73.6,29.99,West,274,0.0,0.0,87,0.00,,,0.00,Wunderground v.1.15,2013-09-11 08:30:00,
2013-09-11 04:35:00,77.6,73.4,29.99,West,260,0.0,0.0,87,0.00,,,0.00,Wunderground v.1.15,2013-09-11 08:35:00,
2013-09-11 04:40:00,77.6,73.4,29.99,WNW,282,1.0,2.0,87,0.00,,,0.00,Wunderground v.1.15,2013-09-11 08:40:00,
2013-09-11 04:45:00,77.5,73.3,29.99,WSW,248,1.0,2.0,87,0.00,,,0.00,Wunderground v.1.15,2013-09-11 08:45:00,
2013-09-11 04:55:00,77.3,73.5,29.99,WSW,249,0.0,1.0,88,0.00,,,0.00,Wunderground v.1.15,2013-09-11 08:55:00,
2013-09-11 05:00:00,77.0,73.2,29.99,SE,143,0.0,0.0,88,0.00,,,0.00,Wunderground v.1.15,2013-09-11 09:00:00,
2013-09-11 05:10:00,76.7,73.2,29.99,SW,217,0.0,0.0,89,0.00,,,0.00,Wunderground v.1.15,2013-09-11 09:10:00,
2013-09-11 05:15:00,76.6,73.1,29.99,SW,217,0.0,0.0,89,0.00,,,0.00,Wunderground v.1.15,2013-09-11 09:15:00,
2013-09-11 05:20:00,76.5,73.0,29.99,SW,214,0.0,0.0,89,0.00,,,0.00,Wunderground v.1.15,2013-09-11 09:20:00,
2013-09-11 05:30:00,76.1,73.0,29.99,South,188,0.0,0.0,90,0.00,,,0.00,Wunderground v.1.15,2013-09-11 09:30:00,
2013-09-11 05:35:00,75.9,73.1,29.99,SSW,210,0.0,0.0,91,0.00,,,0.00,Wunderground v.1.15,2013-09-11 09:35:00,
2013-09-11 05:40:00,75.8,73.0,30.00,WSW,253,0.0,0.0,91,0.00,,,0.00,Wunderground v.1.15,2013-09-11 09:40:00,
2013-09-11 05:45:00,75.6,72.8,30.00,WSW,252,0.0,0.0,91,0.00,,,0.00,Wunderground v.1.15,2013-09-11 09:45:00,
2013-09-11 05:50:00,75.4,72.6,30.00,WSW,252,0.0,0.0,91,0.00,,,0.00,Wunderground v.1.15,2013-09-11 09:50:00,
2013-09-11 06:00:00,74.8,72.3,30.00,WSW,252,0.0,0.0,92,0.00,,,0.00,Wunderground v.1.15,2013-09-11 10:00:00,
2013-09-11 06:10:00,74.3,72.1,30.01,WSW,252,0.0,0.0,93,0.00,,,0.00,Wunderground v.1.15,2013-09-11 10:10:00,
2013-09-11 06:15:00,74.1,71.9,30.01,WSW,252,0.0,0.0,93,0.00,,,0.00,Wunderground v.1.15,2013-09-11 10:15:00,
2013-09-11 06:20:00,74.0,72.2,30.01,WSW,252,0.0,0.0,94,0.00,,,0.00,Wunderground v.1.15,2013-09-11 10:20:00,
2013-09-11 06:30:00,73.5,71.7,30.01,WSW,252,0.0,0.0,94,0.00,,,0.00,Wunderground v.1.15,2013-09-11 10:30:00,
2013-09-11 06:35:00,73.4,71.9,30.02,WSW,252,0.0,0.0,95,0.00,,,0.00,Wunderground v.1.15,2013-09-11 10:35:00,
2013-09-11 06:40:00,73.3,71.8,30.02,WSW,252,0.0,0.0,95,0.00,,,0.00,Wunderground v.1.15,2013-09-11 10:40:00,
2013-09-11 06:45:00,73.2,71.7,30.02,WSW,252,0.0,0.0,95,0.00,,,0.00,Wunderground v.1.15,2013-09-11 10:45:00,
2013-09-11 06:50:00,73.0,71.5,30.02,WSW,252,0.0,0.0,95,0.00,,,0.00,Wunderground v.1.15,2013-09-11 10:50:00,
2013-09-11 06:55:00,73.0,71.8,30.02,WSW,252,0.0,0.0,96,0.00,,,0.00,Wunderground v.1.15,2013-09-11 10:55:00,
2013-09-11 07:00:00,73.0,71.8,30.02,WSW,252,0.0,0.0,96,0.00,,,0.00,Wunderground v.1.15,2013-09-11 11:00:00,
2013-09-11 07:09:00,73.1,71.9,30.02,WSW,252,0.0,0.0,96,0.00,,,0.00,Wunderground v.1.15,2013-09-11 11:09:00,
2013-09-11 07:14:00,73.1,71.9,30.02,WSW,252,0.0,0.0,96,0.00,,,0.00,Wunderground v.1.15,2013-09-11 11:14:00,
2013-09-11 07:19:00,73.2,72.0,30.02,WSW,252,0.0,0.0,96,0.00,,,0.00,Wunderground v.1.15,2013-09-11 11:19:00,
2013-09-11 07:24:00,73.3,72.1,30.02,WSW,252,0.0,0.0,96,0.00,,,0.00,Wunderground v.1.15,2013-09-11 11:24:00,
2013-09-11 07:29:00,73.5,72.3,30.02,WSW,252,0.0,0.0,96,0.00,,,0.00,Wunderground v.1.15,2013-09-11 11:29:00,
2013-09-11 07:39:00,73.6,72.4,30.02,WSW,252,0.0,0.0,96,0.00,,,0.00,Wunderground v.1.15,2013-09-11 11:39:00,
2013-09-11 07:44:00,73.9,72.7,30.02,WSW,252,0.0,0.0,96,0.00,,,0.00,Wunderground v.1.15,2013-09-11 11:44:00,
2013-09-11 07:49:00,74.4,72.9,30.02,SE,130,0.0,0.0,95,0.00,,,0.00,Wunderground v.1.15,2013-09-11 11:49:00,
2013-09-11 07:54:00,75.1,73.3,30.02,ESE,123,0.0,0.0,94,0.00,,,0.00,Wunderground v.1.15,2013-09-11 11:54:00,
2013-09-11 08:00:00,75.8,73.6,30.02,ESE,123,0.0,0.0,93,0.00,,,0.00,Wunderground v.1.15,2013-09-11 12:00:00,
2013-09-11 08:05:00,76.3,73.8,30.02,ESE,123,0.0,0.0,92,0.00,,,0.00,Wunderground v.1.15,2013-09-11 12:05:00,
2013-09-11 08:10:00,77.2,74.0,30.02,WNW,294,0.0,1.0,90,0.00,,,0.00,Wunderground v.1.15,2013-09-11 12:10:00,
2013-09-11 08:15:00,78.0,74.5,30.02,West,281,0.0,1.0,89,0.00,,,0.00,Wunderground v.1.15,2013-09-11 12:15:00,
2013-09-11 08:20:00,78.4,74.2,30.02,West,259,0.0,1.0,87,0.00,,,0.00,Wunderground v.1.15,2013-09-11 12:20:00,
2013-09-11 08:25:00,79.0,74.5,30.02,West,259,0.0,1.0,86,0.00,,,0.00,Wunderground v.1.15,2013-09-11 12:25:00,
2013-09-11 08:30:00,79.4,74.5,30.02,WSW,244,1.0,1.0,85,0.00,,,0.00,Wunderground v.1.15,2013-09-11 12:30:00,
2013-09-11 08:40:00,80.3,75.0,30.02,West,269,1.0,2.0,84,0.00,,,0.00,Wunderground v.1.15,2013-09-11 12:40:00,
2013-09-11 08:45:00,80.5,74.9,30.01,WNW,293,1.0,2.0,83,0.00,,,0.00,Wunderground v.1.15,2013-09-11 12:45:00,
2013-09-11 08:50:00,80.7,74.7,30.02,SE,129,1.0,1.0,82,0.00,,,0.00,Wunderground v.1.15,2013-09-11 12:50:00,
2013-09-11 08:55:00,80.9,74.9,30.02,WNW,295,1.0,3.0,82,0.00,,,0.00,Wunderground v.1.15,2013-09-11 12:55:00,
2013-09-11 09:00:00,81.2,75.2,30.02,WSW,251,1.0,1.0,82,0.00,,,0.00,Wunderground v.1.15,2013-09-11 13:00:00,
2013-09-11 09:10:00,81.9,75.1,30.02,WSW,250,0.0,3.0,80,0.00,,,0.00,Wunderground v.1.15,2013-09-11 13:10:00,
2013-09-11 09:15:00,82.2,75.0,30.02,WSW,258,1.0,3.0,79,0.00,,,0.00,Wunderground v.1.15,2013-09-11 13:15:00,
2013-09-11 09:20:00,82.4,75.2,30.02,WSW,245,1.0,1.0,79,0.00,,,0.00,Wunderground v.1.15,2013-09-11 13:20:00,
2013-09-11 09:25:00,82.5,75.3,30.02,West,271,1.0,1.0,79,0.00,,,0.00,Wunderground v.1.15,2013-09-11 13:25:00,
2013-09-11 09:30:00,82.7,74.8,30.02,South,172,1.0,2.0,77,0.00,,,0.00,Wunderground v.1.15,2013-09-11 13:30:00,
2013-09-11 09:35:00,83.0,75.0,30.02,NW,309,1.0,2.0,77,0.00,,,0.00,Wunderground v.1.15,2013-09-11 13:35:00,
2013-09-11 09:45:00,83.5,75.5,30.01,SW,224,1.0,1.0,77,0.00,,,0.00,Wunderground v.1.15,2013-09-11 13:45:00,
2013-09-11 09:50:00,83.9,75.5,30.01,West,259,1.0,1.0,76,0.00,,,0.00,Wunderground v.1.15,2013-09-11 13:50:00,
2013-09-11 09:55:00,84.3,75.5,30.01,WSW,253,1.0,1.0,75,0.00,,,0.00,Wunderground v.1.15,2013-09-11 13:55:00,
2013-09-11 10:00:00,84.5,75.7,30.01,SW,236,1.0,2.0,75,0.00,,,0.00,Wunderground v.1.15,2013-09-11 14:00:00,
2013-09-11 10:10:00,84.7,75.1,30.01,SSW,203,2.0,2.0,73,0.00,,,0.00,Wunderground v.1.15,2013-09-11 14:10:00,
2013-09-11 10:19:00,85.0,75.4,30.00,SW,233,1.0,1.0,73,0.00,,,0.00,Wunderground v.1.15,2013-09-11 14:19:00,
2013-09-11 10:24:00,85.2,75.6,30.00,West,274,1.0,2.0,73,0.00,,,0.00,Wunderground v.1.15,2013-09-11 14:24:00,
2013-09-11 10:29:00,85.7,75.6,30.00,SW,234,1.0,1.0,72,0.00,,,0.00,Wunderground v.1.15,2013-09-11 14:29:00,
2013-09-11 10:34:00,85.6,75.5,30.00,WNW,286,1.0,1.0,72,0.00,,,0.00,Wunderground v.1.15,2013-09-11 14:34:00,
2013-09-11 10:39:00,85.7,75.2,30.00,West,265,2.0,2.0,71,0.00,,,0.00,Wunderground v.1.15,2013-09-11 14:39:00,
2013-09-11 10:49:00,86.8,76.3,30.00,SE,134,1.0,1.0,71,0.00,,,0.00,Wunderground v.1.15,2013-09-11 14:49:00,
2013-09-11 10:54:00,87.5,75.6,30.00,East,84,2.0,2.0,68,0.00,,,0.00,Wunderground v.1.15,2013-09-11 14:54:00,
2013-09-11 11:00:00,87.5,74.7,29.99,SW,233,2.0,2.0,66,0.00,,,0.00,Wunderground v.1.15,2013-09-11 15:00:00,
2013-09-11 11:10:00,87.7,74.9,29.99,SSE,150,2.0,2.0,66,0.00,,,0.00,Wunderground v.1.15,2013-09-11 15:10:00,
2013-09-11 11:15:00,87.9,75.1,29.99,WSW,252,2.0,2.0,66,0.00,,,0.00,Wunderground v.1.15,2013-09-11 15:15:00,
2013-09-11 11:24:00,88.1,75.8,29.99,WSW,242,2.0,2.0,67,0.00,,,0.00,Wunderground v.1.15,2013-09-11 15:24:00,
2013-09-11 11:29:00,88.2,75.9,29.99,West,269,2.0,2.0,67,0.00,,,0.00,Wunderground v.1.15,2013-09-11 15:29:00,
2013-09-11 11:34:00,88.2,75.4,29.99,WNW,297,2.0,2.0,66,0.00,,,0.00,Wunderground v.1.15,2013-09-11 15:34:00,
2013-09-11 11:39:00,88.5,75.7,29.99,WSW,248,2.0,2.0,66,0.00,,,0.00,Wunderground v.1.15,2013-09-11 15:39:00,
2013-09-11 11:44:00,88.6,75.8,29.99,SSW,203,2.0,2.0,66,0.00,,,0.00,Wunderground v.1.15,2013-09-11 15:44:00,
2013-09-11 11:54:00,89.2,75.9,29.98,WSW,255,2.0,2.0,65,0.00,,,0.00,Wunderground v.1.15,2013-09-11 15:54:00,
2013-09-11 12:00:00,89.7,75.9,29.98,SW,230,1.0,4.0,64,0.00,,,0.00,Wunderground v.1.15,2013-09-11 16:00:00,
2013-09-11 12:09:00,89.9,75.1,29.98,WNW,288,2.0,2.0,62,0.00,,,0.00,Wunderground v.1.15,2013-09-11 16:09:00,
2013-09-11 12:14:00,90.6,75.8,29.98,WSW,247,2.0,2.0,62,0.00,,,0.00,Wunderground v.1.15,2013-09-11 16:14:00,
2013-09-11 12:19:00,90.9,75.1,29.97,South,176,1.0,1.0,60,0.00,,,0.00,Wunderground v.1.15,2013-09-11 16:19:00,
2013-09-11 12:25:00,91.6,75.2,29.97,West,278,1.0,3.0,59,0.00,,,0.00,Wunderground v.1.15,2013-09-11 16:25:00,
2013-09-11 12:30:00,91.7,75.8,29.97,WNW,288,2.0,2.0,60,0.00,,,0.00,Wunderground v.1.15,2013-09-11 16:30:00,
2013-09-11 12:35:00,91.9,75.5,29.97,West,265,2.0,2.0,59,0.00,,,0.00,Wunderground v.1.15,2013-09-11 16:35:00,
2013-09-11 12:44:00,91.9,76.0,29.97,SSE,153,2.0,2.0,60,0.00,,,0.00,Wunderground v.1.15,2013-09-11 16:44:00,
2013-09-11 12:49:00,92.2,75.8,29.97,West,260,2.0,2.0,59,0.00,,,0.00,Wunderground v.1.15,2013-09-11 16:49:00,
2013-09-11 12:55:00,92.2,75.3,29.97,SW,233,1.0,2.0,58,0.00,,,0.00,Wunderground v.1.15,2013-09-11 16:55:00,
2013-09-11 13:00:00,92.0,75.6,29.97,WNW,287,2.0,2.0,59,0.00,,,0.00,Wunderground v.1.15,2013-09-11 17:00:00,
2013-09-11 13:10:00,92.8,74.3,29.97,WNW,297,2.0,3.0,55,0.00,,,0.00,Wunderground v.1.15,2013-09-11 17:10:00,
2013-09-11 13:15:00,93.1,74.5,29.96,South,181,2.0,3.0,55,0.00,,,0.00,Wunderground v.1.15,2013-09-11 17:15:00,
2013-09-11 13:20:00,93.4,74.8,29.96,SSW,213,2.0,2.0,55,0.00,,,0.00,Wunderground v.1.15,2013-09-11 17:20:00,
2013-09-11 13:30:00,93.8,71.7,29.96,West,279,3.0,5.0,49,0.00,,,0.00,Wunderground v.1.15,2013-09-11 17:30:00,
2013-09-11 13:35:00,93.7,72.8,29.96,West,259,3.0,5.0,51,0.00,,,0.00,Wunderground v.1.15,2013-09-11 17:35:00,
2013-09-11 13:40:00,93.6,71.6,29.95,WSW,254,3.0,3.0,49,0.00,,,0.00,Wunderground v.1.15,2013-09-11 17:40:00,
2013-09-11 13:45:00,93.3,71.3,29.95,SSW,213,3.0,5.0,49,0.00,,,0.00,Wunderground v.1.15,2013-09-11 17:45:00,
2013-09-11 13:50:00,93.2,71.8,29.95,West,263,2.0,4.0,50,0.00,,,0.00,Wunderground v.1.15,2013-09-11 17:50:00,
2013-09-11 13:55:00,93.5,71.5,29.95,WNW,282,2.0,4.0,49,0.00,,,0.00,Wunderground v.1.15,2013-09-11 17:55:00,
2013-09-11 14:00:00,93.6,72.2,29.94,ESE,110,2.0,2.0,50,0.00,,,0.00,Wunderground v.1.15,2013-09-11 18:00:00,
2013-09-11 14:10:00,93.0,71.0,29.94,WSW,239,3.0,3.0,49,0.00,,,0.00,Wunderground v.1.15,2013-09-11 18:10:00,
2013-09-11 14:15:00,92.9,71.5,29.94,WSW,254,2.0,3.0,50,0.00,,,0.00,Wunderground v.1.15,2013-09-11 18:15:00,
2013-09-11 14:20:00,93.0,72.2,29.94,WSW,253,2.0,2.0,51,0.00,,,0.00,Wunderground v.1.15,2013-09-11 18:20:00,
2013-09-11 14:25:00,93.2,71.2,29.94,SW,231,2.0,5.0,49,0.00,,,0.00,Wunderground v.1.15,2013-09-11 18:25:00,
2013-09-11 14:34:00,92.6,70.6,29.93,SW,220,3.0,3.0,49,0.00,,,0.00,Wunderground v.1.15,2013-09-11 18:34:00,
2013-09-11 14:39:00,92.5,70.6,29.93,WSW,247,2.0,3.0,49,0.00,,,0.00,Wunderground v.1.15,2013-09-11 18:39:00,
2013-09-11 14:44:00,92.4,70.5,29.93,West,271,2.0,3.0,49,0.00,,,0.00,Wunderground v.1.15,2013-09-11 18:44:00,
2013-09-11 14:49:00,92.4,70.5,29.92,West,264,2.0,2.0,49,0.00,,,0.00,Wunderground v.1.15,2013-09-11 18:49:00,
2013-09-11 14:54:00,92.8,70.8,29.93,West,279,2.0,2.0,49,0.00,,,0.00,Wunderground v.1.15,2013-09-11 18:54:00,
2013-09-11 15:00:00,92.7,70.7,29.93,NE,42,2.0,2.0,49,0.00,,,0.00,Wunderground v.1.15,2013-09-11 19:00:00,
2013-09-11 15:09:00,92.6,71.8,29.92,SW,220,1.0,1.0,51,0.00,,,0.00,Wunderground v.1.15,2013-09-11 19:09:00,
2013-09-11 15:14:00,92.4,71.1,29.92,WSW,244,1.0,2.0,50,0.00,,,0.00,Wunderground v.1.15,2013-09-11 19:14:00,
2013-09-11 15:19:00,92.4,71.6,29.92,WSW,257,1.0,1.0,51,0.00,,,0.00,Wunderground v.1.15,2013-09-11 19:19:00,
2013-09-11 15:24:00,92.4,71.6,29.91,WNW,285,1.0,2.0,51,0.00,,,0.00,Wunderground v.1.15,2013-09-11 19:24:00,
2013-09-11 15:29:00,92.8,72.0,29.91,WNW,285,1.0,1.0,51,0.00,,,0.00,Wunderground v.1.15,2013-09-11 19:29:00,
2013-09-11 15:39:00,93.9,71.8,29.91,WNW,283,1.0,1.0,49,0.00,,,0.00,Wunderground v.1.15,2013-09-11 19:39:00,
2013-09-11 15:44:00,93.6,71.6,29.91,East,86,1.0,1.0,49,0.00,,,0.00,Wunderground v.1.15,2013-09-11 19:44:00,
2013-09-11 15:50:00,92.9,70.9,29.90,WNW,282,2.0,2.0,49,0.00,,,0.00,Wunderground v.1.15,2013-09-11 19:50:00,
2013-09-11 16:00:00,92.8,70.8,29.90,South,180,2.0,2.0,49,0.00,,,0.00,Wunderground v.1.15,2013-09-11 20:00:00,
2013-09-11 18:05:00,78.5,70.3,29.93,WSW,240,1.0,1.0,76,0.00,,,0.07,Wunderground v.1.15,2013-09-11 22:05:00,